Lima, OH

4:32 AM EDT on July 30, 2016 (GMT -0400)
Lima Allen County

Weather History for KAOH - January, 2013

Change the Weather History Date:

Wednesday, January 23, 2013

  Actual Average (KFDY) Record (KFDY)
Temperature  
Mean Temperature 14 °F -  
Max Temperature 19 °F 36 °F 64 °F (1967)
Min Temperature 8 °F 20 °F -17 °F (1963)
Degree Days  
Heating Degree Days 52    
Moisture  
Dew Point 5 °F    
Average Humidity 65    
Maximum Humidity 81    
Minimum Humidity 44    
Precipitation  
Precipitation 0.00 in - - ()
Sea Level Pressure  
Sea Level Pressure 30.20 in    
Wind  
Wind Speed 11 mph (WSW)    
Max Wind Speed 15 mph    
Max Gust Speed -    
Visibility 7 miles    
Events Snow    
Averages and records for this station are not official NWS values.
T = Trace of Precipitation, MM = Missing Value Source: NWS Daily Summary

Daily Weather History Graph

Daily Weather History Graph

Search for Another Location

Airport or City:

Trip Planner

Search our weather history database for the weather conditions in past years. The results will help you decide how hot, cold, wet, or windy it might be!

Date:

Astronomy

Jan. 23, 2013 Rise Set
Actual Time 7:53 AM EST 5:43 PM EST
Civil Twilight 7:23 AM EST 6:12 PM EST
Nautical Twilight 6:50 AM EST 6:45 PM EST
Astronomical Twilight 6:18 AM EST 7:18 PM EST
Moon 2:52 PM EST (1/23) 5:04 AM EST (1/23)
Length of Visible Light 10h 48m
Length of Day
9h 49m
Waxing Gibbous, 89% of the Moon is Illuminated
Jan 23
Waxing Gibbous
Jan 26
Full
Feb 3
Last Quarter
Feb 10
New
Feb 17
First Quarter

Hourly Weather History & Observations

Time (EST) Temp. Windchill Dew Point Humidity Pressure Visibility Wind Dir Wind Speed Gust Speed Precip Events Conditions
12:53 AM 10.9 °F -4.7 °F -0.9 °F 59% 30.34 in 10.0 mi West 13.8 mph - N/A   Clear
1:53 AM 10.0 °F -5.9 °F -2.9 °F 56% 30.34 in 10.0 mi West 13.8 mph - N/A   Clear
2:53 AM 10.0 °F -4.5 °F -2.0 °F 58% 30.34 in 10.0 mi West 11.5 mph - N/A   Clear
3:53 AM 9.0 °F -5.1 °F -2.0 °F 61% 30.33 in 10.0 mi WSW 10.4 mph - N/A   Clear
4:53 AM 8.1 °F -3.2 °F -0.9 °F 67% 30.33 in 10.0 mi WSW 6.9 mph - N/A   Clear
5:53 AM 9.0 °F -3.2 °F -0.9 °F 64% 30.33 in 10.0 mi SW 8.1 mph - N/A   Partly Cloudy
6:53 AM 10.9 °F -2.6 °F -0.0 °F 61% 30.33 in 10.0 mi WSW 10.4 mph - N/A   Overcast
7:53 AM 10.9 °F -1.8 °F -0.0 °F 61% 30.32 in 10.0 mi WSW 9.2 mph - N/A   Overcast
8:53 AM 12.0 °F -1.3 °F -0.0 °F 59% 30.32 in 10.0 mi SW 10.4 mph - N/A   Overcast
9:53 AM 12.9 °F -0.9 °F -0.9 °F 54% 30.31 in 10.0 mi SW 11.5 mph - N/A   Overcast
10:53 AM 15.1 °F 1.8 °F -0.0 °F 51% 30.31 in 10.0 mi SW 11.5 mph - N/A   Overcast
11:53 AM 16.0 °F 1.1 °F -0.9 °F 47% 30.28 in 10.0 mi SW 15.0 mph - N/A   Overcast
12:53 PM 17.1 °F 3.0 °F 1.0 °F 50% 30.25 in 10.0 mi SW 13.8 mph - N/A   Overcast
1:53 PM 18.0 °F 4.8 °F 1.9 °F 50% 30.21 in 10.0 mi WSW 12.7 mph - N/A   Overcast
2:53 PM 19.0 °F 6.1 °F 1.9 °F 47% 30.19 in 10.0 mi West 12.7 mph - N/A   Overcast
3:53 PM 19.9 °F 7.3 °F 1.0 °F 44% 30.17 in 10.0 mi West 12.7 mph - N/A   Overcast
4:53 PM 19.0 °F 7.5 °F 3.9 °F 52% 30.16 in 10.0 mi SW 10.4 mph - N/A   Overcast
5:53 PM 19.0 °F 8.2 °F 6.1 °F 57% 30.16 in 10.0 mi WSW 9.2 mph - N/A   Overcast
6:43 PM 17.6 °F 4.3 °F 10.4 °F 73% 30.10 in 3.0 mi SW 12.7 mph - 0.00 in Snow Light Snow
6:53 PM 18.0 °F 5.4 °F 10.0 °F 71% 30.15 in 3.0 mi WSW 11.5 mph - 0.00 in Snow Light Snow
7:10 PM 17.6 °F 5.7 °F 10.4 °F 73% 30.09 in 4.0 mi SW 10.4 mph - 0.00 in Snow Light Snow
7:53 PM 17.1 °F 5.8 °F 10.9 °F 77% 30.14 in 6.0 mi SW 9.2 mph - 0.00 in Snow Light Snow
8:53 PM 18.0 °F 6.9 °F 12.0 °F 78% 30.12 in 8.0 mi SW 9.2 mph - 0.00 in   Overcast
9:30 PM 17.6 °F 6.4 °F 12.2 °F 79% 30.06 in 2.5 mi WSW 9.2 mph - 0.00 in Snow Light Snow
9:50 PM 17.6 °F 7.3 °F 12.2 °F 79% 30.06 in 1.8 mi WSW 8.1 mph - 0.00 in Snow Light Snow
9:53 PM 18.0 °F 7.7 °F 12.9 °F 81% 30.12 in 2.0 mi WSW 8.1 mph - 0.00 in Snow Light Snow
10:13 PM 17.6 °F 8.2 °F 12.2 °F 79% 30.06 in 1.5 mi SW 6.9 mph - 0.00 in Snow Light Snow
10:48 PM 17.6 °F 7.3 °F 12.2 °F 79% 30.05 in 2.0 mi WSW 8.1 mph - 0.00 in Snow Light Snow
10:53 PM 18.0 °F 6.9 °F 12.9 °F 81% 30.10 in 2.0 mi WSW 9.2 mph - 0.00 in Snow Light Snow
11:03 PM 17.6 °F 5.0 °F 12.2 °F 79% 30.05 in 3.0 mi WSW 11.5 mph - 0.00 in Snow Light Snow
11:25 PM 17.6 °F 4.3 °F 12.2 °F 79% 30.05 in 2.5 mi West 12.7 mph - 0.00 in Snow Light Snow
11:53 PM 18.0 °F 4.2 °F 12.9 °F 81% 30.11 in 2.0 mi West 13.8 mph - 0.00 in Snow Light Snow